Dagsboro, DE DE USA current weather conditions

sailwx.info

Wind from 216 at 3 knots gusting 4

Air temperature 9.6° C
Dewpoint 1.8° C

Last reported at 2020-Feb-24 14:00 UTC.
Time now 2020-Feb-24 14:39 UTC

Location: N 38°33' W 075°14'.
View on Google Maps.

See reports from other nearby stations

  
Tides and Currents Weather Stations Pressure Air Temp Water Temp Dewpoint Dewpoint Depression Visibility Wind Speed Wind Dir Waves Ship Positions
date/time (UTC)wind fromknots sea level pressurealtimeterstation pressurevisibilityair tempwater tempwave heightnotes
2020-Feb-24 14:00 216 3 gusting 4 9.6
2020-Feb-24 13:50 229 3 gusting 4 8.8
2020-Feb-24 13:45 226 3 gusting 4 8.4
2020-Feb-24 13:40 219 2 gusting 3 8.3
2020-Feb-24 13:35 215 2 gusting 3 8.1
2020-Feb-24 13:30 198 2 gusting 4 8.3
2020-Feb-24 13:25 181 2 gusting 3 8.2
2020-Feb-24 13:20 162 2 gusting 2 7.7
2020-Feb-24 13:15 170 1 gusting 2 7.0
2020-Feb-24 13:10 179 1 gusting 2 6.4
2020-Feb-24 13:05 178 2 gusting 2 6.3
2020-Feb-24 13:00 174 1 gusting 2 6.2
2020-Feb-24 12:55 148 1 gusting 2 6.1
2020-Feb-24 12:50 131 1 gusting 1 6.3
2020-Feb-24 12:45 142 0 gusting 0 6.3
2020-Feb-24 12:40 126 0 gusting 1 5.0
2020-Feb-24 12:35 145 1 gusting 1 3.6
2020-Feb-24 12:30 138 1 gusting 1 3.4
2020-Feb-24 12:25 148 0 gusting 1 3.8
2020-Feb-24 12:20 150 1 gusting 1 3.8
2020-Feb-24 12:15 128 0 gusting 1 3.6
2020-Feb-24 12:10 116 1 gusting 1 2.8
2020-Feb-24 12:05 121 1 gusting 1 3.1
2020-Feb-24 12:00 125 0 gusting 1 3.0
2020-Feb-24 11:55 144 0 gusting 0 2.9
2020-Feb-24 11:50 3.0
2020-Feb-24 11:45 3.2
2020-Feb-24 11:40 155 0 gusting 1 3.3
2020-Feb-24 11:35 167 0 gusting 0 3.3
2020-Feb-24 11:30 127 0 gusting 0 3.7
2020-Feb-24 11:25 128 0 gusting 0 3.7
2020-Feb-24 11:20 120 0 gusting 1 3.6
2020-Feb-24 11:15 139 0 gusting 1 3.5
2020-Feb-24 11:10 160 0 gusting 1 3.8
2020-Feb-24 11:05 188 1 gusting 2 4.9
2020-Feb-24 11:00 215 1 gusting 2 5.1
2020-Feb-24 10:55 210 2 gusting 3 5.2
2020-Feb-24 10:50 205 3 gusting 4 5.1
2020-Feb-24 10:45 200 2 gusting 4 5.2
2020-Feb-24 10:40 194 3 gusting 3 5.4
2020-Feb-24 10:35 196 2 gusting 3 5.5
2020-Feb-24 10:30 194 2 gusting 5 5.4
2020-Feb-24 10:25 193 2 gusting 3 5.3
2020-Feb-24 10:20 192 2 gusting 3 5.3
2020-Feb-24 10:15 191 2 gusting 4 5.3
2020-Feb-24 10:10 185 2 gusting 3 5.2
2020-Feb-24 10:05 183 2 gusting 3 5.3
2020-Feb-24 10:00 187 2 gusting 3 5.3
2020-Feb-24 09:55 188 2 gusting 4 5.2
2020-Feb-24 09:50 191 2 gusting 3 5.2
2020-Feb-24 09:45 193 2 gusting 4 5.2
2020-Feb-24 09:40 195 2 gusting 5 5.2
2020-Feb-24 09:35 195 2 gusting 4 5.1
2020-Feb-24 09:30 196 2 gusting 4 4.7
2020-Feb-24 09:25 191 1 gusting 2 4.6
2020-Feb-24 09:20 186 1 gusting 3 4.6
2020-Feb-24 09:15 188 1 gusting 2 4.7
2020-Feb-24 09:10 177 1 gusting 2 4.7
2020-Feb-24 09:05 172 1 gusting 2 4.7
2020-Feb-24 09:00 175 2 gusting 3 5.0
2020-Feb-24 08:55 179 3 gusting 3 5.1
2020-Feb-24 08:50 182 3 gusting 4 5.4
2020-Feb-24 08:45 190 3 gusting 4 5.6
2020-Feb-24 08:40 197 2 gusting 3 5.6
2020-Feb-24 08:35 198 2 gusting 3 5.6
2020-Feb-24 08:30 195 2 gusting 3 5.5
2020-Feb-24 08:25 201 2 gusting 3 5.4
2020-Feb-24 08:20 192 1 gusting 3 5.4
2020-Feb-24 08:15 200 0 gusting 1 5.4
2020-Feb-24 08:10 198 1 gusting 2 5.4
2020-Feb-24 08:05 191 1 gusting 2 5.4
2020-Feb-24 08:00 195 1 gusting 2 5.5
2020-Feb-24 07:55 191 2 gusting 2 5.5
2020-Feb-24 07:50 190 2 gusting 3 5.4
2020-Feb-24 07:45 189 2 gusting 3 5.4
2020-Feb-24 07:40 185 1 gusting 2 5.4
2020-Feb-24 07:35 186 2 gusting 3 5.5
2020-Feb-24 07:30 182 2 gusting 2 5.5
2020-Feb-24 07:25 188 2 gusting 3 5.5
2020-Feb-24 07:20 182 2 gusting 3 5.6
2020-Feb-24 07:15 176 2 gusting 3 5.6
2020-Feb-24 07:10 182 2 gusting 3 5.6
2020-Feb-24 07:05 184 2 gusting 4 5.7
2020-Feb-24 07:00 181 2 gusting 5 5.8
2020-Feb-24 06:55 188 3 gusting 5 5.7
2020-Feb-24 06:50 188 3 gusting 4 5.7
2020-Feb-24 06:45 183 3 gusting 4 5.8
2020-Feb-24 06:40 179 3 gusting 4 5.9
2020-Feb-24 06:35 178 3 gusting 5 6.0
2020-Feb-24 06:30 179 3 gusting 4 6.1
2020-Feb-24 06:25 183 3 gusting 5 6.2
2020-Feb-24 06:20 187 3 gusting 6 6.2
2020-Feb-24 06:15 185 3 gusting 6 6.2
2020-Feb-24 06:10 180 4 gusting 6 6.3
2020-Feb-24 06:05 182 4 gusting 6 6.1
2020-Feb-24 06:00 180 4 gusting 6 5.9
2020-Feb-24 05:55 175 4 gusting 7 5.5
2020-Feb-24 05:50 173 3 gusting 5 5.2
2020-Feb-24 05:45 176 2 gusting 5 5.1
2020-Feb-24 05:40 181 2 gusting 4 4.9
2020-Feb-24 05:35 178 2 gusting 3 4.9
2020-Feb-24 05:30 176 2 gusting 3 4.8
2020-Feb-24 05:25 166 2 gusting 3 4.8
2020-Feb-24 05:20 164 2 gusting 2 4.9
2020-Feb-24 05:15 170 2 gusting 4 5.2
2020-Feb-24 05:10 175 2 gusting 4 5.2
2020-Feb-24 05:05 174 2 gusting 3 5.2
2020-Feb-24 05:00 171 2 gusting 4 5.1
2020-Feb-24 04:55 163 2 gusting 3 5.1
2020-Feb-24 04:50 161 3 gusting 4 5.3
2020-Feb-24 04:45 172 3 gusting 4 5.3
2020-Feb-24 04:40 170 3 gusting 4 5.4
2020-Feb-24 04:35 170 3 gusting 4 5.5
2020-Feb-24 04:30 169 3 gusting 5 5.6
2020-Feb-24 04:25 170 4 gusting 6 5.7
2020-Feb-24 04:20 169 4 gusting 6 5.8
2020-Feb-24 04:15 167 4 gusting 5 5.7
2020-Feb-24 04:10 167 4 gusting 5 5.8
2020-Feb-24 04:05 169 3 gusting 4 5.8
2020-Feb-24 04:00 171 3 gusting 6 5.9
2020-Feb-24 03:55 171 3 gusting 4 6.0
2020-Feb-24 03:50 171 3 gusting 6 6.1
2020-Feb-24 03:45 169 3 gusting 5 6.2
2020-Feb-24 03:40 170 4 gusting 5 6.2
2020-Feb-24 03:35 168 4 gusting 6 6.1
2020-Feb-24 03:30 168 4 gusting 6 6.0
2020-Feb-24 03:25 173 4 gusting 6 6.0
2020-Feb-24 03:20 176 4 gusting 6 5.9
2020-Feb-24 03:15 175 4 gusting 5 5.9
2020-Feb-24 03:10 175 4 gusting 6 5.9
2020-Feb-24 03:05 175 4 gusting 6 6.0
2020-Feb-24 03:00 175 5 gusting 8 6.0
2020-Feb-24 02:55 178 5 gusting 8 6.1
2020-Feb-24 02:50 179 6 gusting 8 6.1
2020-Feb-24 02:45 179 6 gusting 8 6.0
2020-Feb-24 02:40 180 6 gusting 8 6.0
2020-Feb-24 02:35 177 5 gusting 7 5.9
2020-Feb-24 02:30 179 5 gusting 8 5.5
2020-Feb-24 02:25 173 4 gusting 6 5.2
2020-Feb-24 02:20 174 4 gusting 5 4.9
2020-Feb-24 02:15 174 4 gusting 5 4.9
2020-Feb-24 02:10 172 3 gusting 6 4.6
2020-Feb-24 02:05 173 2 gusting 4 4.4
2020-Feb-24 02:00 177 2 gusting 4 4.4
2020-Feb-24 01:55 173 3 gusting 4 4.4
2020-Feb-24 01:50 170 3 gusting 5 4.4
2020-Feb-24 01:45 168 2 gusting 4 4.5
2020-Feb-24 01:40 166 2 gusting 3 4.5
2020-Feb-24 01:35 174 3 gusting 4 4.7
2020-Feb-24 01:30 177 3 gusting 5 4.6
2020-Feb-24 01:25 180 3 gusting 5 4.6
2020-Feb-24 01:20 179 3 gusting 5 4.5
2020-Feb-24 01:15 175 3 gusting 4 4.5
2020-Feb-24 01:10 173 3 gusting 5 4.4
2020-Feb-24 01:05 174 2 gusting 3 4.4
2020-Feb-24 01:00 168 2 gusting 3 4.3
2020-Feb-24 00:55 160 2 gusting 3 4.4
2020-Feb-24 00:50 147 3 gusting 4 4.4
2020-Feb-24 00:45 145 3 gusting 4 4.5
2020-Feb-24 00:40 144 3 gusting 4 4.4
2020-Feb-24 00:35 146 3 gusting 4 4.3
2020-Feb-24 00:30 147 3 gusting 4 4.2
2020-Feb-24 00:25 150 3 gusting 4 4.2
2020-Feb-24 00:20 149 2 gusting 3 4.5
2020-Feb-24 00:15 148 3 gusting 3 4.7
2020-Feb-24 00:10 147 2 gusting 3 4.8
2020-Feb-24 00:05 147 2 gusting 3 5.0
2020-Feb-24 00:00 151 2 gusting 3 5.1
2020-Feb-23 23:55 145 3 gusting 3 5.2
2020-Feb-23 23:50 143 3 gusting 4 5.3
2020-Feb-23 23:45 147 3 gusting 4 5.4
2020-Feb-23 23:40 148 3 gusting 4 5.5
2020-Feb-23 23:35 155 4 gusting 5 5.5
2020-Feb-23 23:30 156 4 gusting 6 5.7
2020-Feb-23 23:25 148 4 gusting 6 5.5
2020-Feb-23 23:20 144 4 gusting 5 5.5
2020-Feb-23 23:15 141 3 gusting 4 5.8
2020-Feb-23 23:10 138 3 gusting 4 5.9
2020-Feb-23 23:05 146 3 gusting 4 6.0
2020-Feb-23 23:00 143 3 gusting 5 6.3
2020-Feb-23 22:55 141 3 gusting 4 6.4
2020-Feb-23 22:50 142 4 gusting 5 6.8
2020-Feb-23 22:45 139 4 gusting 6 7.0
2020-Feb-23 22:40 140 4 gusting 7 7.1
2020-Feb-23 22:35 143 4 gusting 5 7.3
2020-Feb-23 22:30 141 5 gusting 6 7.7
2020-Feb-23 22:25 137 4 gusting 6 7.7
2020-Feb-23 22:20 130 3 gusting 5 8.0
2020-Feb-23 22:15 119 4 gusting 5 8.2
2020-Feb-23 22:10 125 5 gusting 7 8.4
2020-Feb-23 22:05 123 4 gusting 7 8.6
2020-Feb-23 22:00 122 5 gusting 6 8.8
2020-Feb-23 21:55 120 6 gusting 7 9.1
2020-Feb-23 21:50 123 6 gusting 8 9.3
2020-Feb-23 21:45 123 6 gusting 8 9.6
2020-Feb-23 21:40 123 6 gusting 9 9.7
2020-Feb-23 21:35 121 7 gusting 9 10.0
2020-Feb-23 21:30 118 6 gusting 8 10.1
2020-Feb-23 21:25 123 5 gusting 7 10.2
2020-Feb-23 21:20 123 6 gusting 8 10.3
2020-Feb-23 21:15 127 7 gusting 10 10.4
2020-Feb-23 21:10 125 6 gusting 9 10.7
2020-Feb-23 21:05 137 6 gusting 9 11.0
2020-Feb-23 21:00 130 7 gusting 9 11.4
2020-Feb-23 20:55 129 7 gusting 9 11.4
2020-Feb-23 20:50 120 7 gusting 10 11.6
2020-Feb-23 20:45 126 7 gusting 10 11.9
2020-Feb-23 20:40 113 7 gusting 10 11.8
2020-Feb-23 20:35 117 8 gusting 11 12.1
2020-Feb-23 20:30 121 7 gusting 10 12.3
2020-Feb-23 20:25 134 6 gusting 10 12.4
2020-Feb-23 20:20 121 6 gusting 10 12.3
2020-Feb-23 20:15 123 7 gusting 11 12.5
2020-Feb-23 20:10 130 6 gusting 9 12.4
2020-Feb-23 20:05 122 7 gusting 10 12.6
2020-Feb-23 20:00 127 4 gusting 9 12.8
2020-Feb-23 19:55 158 4 gusting 7 13.2
2020-Feb-23 19:50 134 5 gusting 8 12.5
2020-Feb-23 19:45 128 5 gusting 9 12.6
2020-Feb-23 19:40 150 4 gusting 6 12.9
2020-Feb-23 19:35 159 5 gusting 7 13.1
2020-Feb-23 19:30 147 3 gusting 7 13.0
2020-Feb-23 19:25 146 4 gusting 8 12.6
2020-Feb-23 19:20 133 4 gusting 6 12.6
2020-Feb-23 19:15 132 5 gusting 7 12.8
2020-Feb-23 19:10 166 4 gusting 7 12.9
2020-Feb-23 19:05 107 6 gusting 9 12.5
2020-Feb-23 19:00 159 3 gusting 7 12.8
2020-Feb-23 18:55 167 4 gusting 7 12.7
2020-Feb-23 18:50 137 4 gusting 7 12.2
2020-Feb-23 18:45 140 3 gusting 7 12.5
2020-Feb-23 18:40 152 4 gusting 7 12.6
2020-Feb-23 18:35 164 4 gusting 7 12.8
2020-Feb-23 18:30 164 4 gusting 6 12.7
2020-Feb-23 18:25 143 4 gusting 9 12.0
2020-Feb-23 18:20 137 5 gusting 8 11.8
2020-Feb-23 18:15 140 4 gusting 7 11.8
2020-Feb-23 18:10 148 6 gusting 8 12.3
2020-Feb-23 18:05 185 5 gusting 7 12.2
2020-Feb-23 18:00 168 6 gusting 8 11.9
2020-Feb-23 17:55 161 6 gusting 9 12.0
2020-Feb-23 17:50 118 6 gusting 10 11.9
2020-Feb-23 17:45 137 6 gusting 9 11.8
2020-Feb-23 17:40 167 6 gusting 9 12.4
2020-Feb-23 17:35 168 4 gusting 7 12.1
2020-Feb-23 17:30 116 5 gusting 9 11.6
2020-Feb-23 17:25 119 5 gusting 9 11.9
2020-Feb-23 17:20 136 2 gusting 6 11.9
2020-Feb-23 17:15 141 5 gusting 8 11.6
2020-Feb-23 17:10 162 3 gusting 7 11.9
2020-Feb-23 17:05 172 5 gusting 8 12.0
2020-Feb-23 17:00 164 5 gusting 7 12.1
2020-Feb-23 16:55 109 5 gusting 8 11.9
2020-Feb-23 16:50 161 4 gusting 7 12.3
2020-Feb-23 16:45 157 4 gusting 8 12.3
2020-Feb-23 16:40 126 4 gusting 7 11.9
2020-Feb-23 16:35 148 5 gusting 9 11.6
2020-Feb-23 16:30 117 5 gusting 8 11.6
2020-Feb-23 16:25 108 6 gusting 10 11.7
2020-Feb-23 16:20 122 4 gusting 9 11.5
2020-Feb-23 16:15 109 5 gusting 8 11.5
2020-Feb-23 16:10 126 4 gusting 6 11.3
2020-Feb-23 16:05 123 4 gusting 7 11.2
2020-Feb-23 16:00 106 4 gusting 7 11.0
2020-Feb-23 15:55 127 4 gusting 6 10.9
2020-Feb-23 15:50 081 4 gusting 7 10.9
2020-Feb-23 15:45 119 4 gusting 7 10.9
2020-Feb-23 15:40 132 4 gusting 7 10.7
2020-Feb-23 15:35 122 5 gusting 7 11.0
2020-Feb-23 15:30 121 3 gusting 5 10.8
2020-Feb-23 15:25 065 2 gusting 4 10.7
2020-Feb-23 15:20 088 2 gusting 4 10.5
2020-Feb-23 15:15 113 2 gusting 5 10.2
2020-Feb-23 15:10 099 2 gusting 4 10.2
2020-Feb-23 15:05 086 2 gusting 5 9.7
2020-Feb-23 15:00 096 3 gusting 5 9.4
2020-Feb-23 14:55 089 3 gusting 5 9.0
2020-Feb-23 14:50 100 2 gusting 4 9.1
2020-Feb-23 14:45 072 1 gusting 2 9.0
2020-Feb-23 14:40 160 1 gusting 2 8.5
2020-Feb-23 14:35 124 2 gusting 2 8.1
2020-Feb-23 14:30 153 1 gusting 2 8.0
2020-Feb-23 14:25 185 0 gusting 1 7.7
2020-Feb-23 14:20 275 0 gusting 1 6.7
2020-Feb-23 14:15 271 1 gusting 2 6.1
2020-Feb-23 14:10 292 1 gusting 2 6.0
2020-Feb-23 14:05 328 0 gusting 1 5.9
2020-Feb-23 14:00 316 1 gusting 1 4.9
2020-Feb-23 13:55 290 1 gusting 2 4.5
2020-Feb-23 13:50 293 0 gusting 1 4.1
2020-Feb-23 13:45 289 0 gusting 1 3.4
2020-Feb-23 13:40 294 1 gusting 2 3.0
2020-Feb-23 13:35 288 1 gusting 2 2.7
2020-Feb-23 13:30 271 1 gusting 1 2.4
2020-Feb-23 13:25 275 0 gusting 1 2.6
2020-Feb-23 13:20 297 0 gusting 0 3.4
2020-Feb-23 13:15 3.2
2020-Feb-23 13:10 2.4
2020-Feb-23 13:05 1.8
2020-Feb-23 13:00 0.8
2020-Feb-23 12:55 -0.2
2020-Feb-23 12:50 235 0 gusting 0 -0.9
2020-Feb-23 12:45 -0.6
2020-Feb-23 12:40 -0.6
2020-Feb-23 12:35 -0.5
2020-Feb-23 12:30 -1.0
2020-Feb-23 12:25 -2.0
2020-Feb-23 12:20 -2.4
2020-Feb-23 12:15 -2.6
2020-Feb-23 12:10 -3.5
2020-Feb-23 12:05 351 0 gusting 0 -3.8
2020-Feb-23 12:00 324 0 gusting 2 -3.8
2020-Feb-23 11:55 316 0 gusting 1 -3.9
2020-Feb-23 11:50 009 0 gusting 1 -3.9
2020-Feb-23 11:45 010 0 gusting 1 -3.9
2020-Feb-23 11:40 020 0 gusting 0 -4.0
2020-Feb-23 11:35 020 0 gusting 0 -4.1
2020-Feb-23 11:30 -4.2
2020-Feb-23 11:25 -4.2
2020-Feb-23 11:20 -4.1
2020-Feb-23 11:15 -3.9
2020-Feb-23 11:10 020 0 gusting 0 -3.7
2020-Feb-23 11:05 020 0 gusting 0 -3.5
2020-Feb-23 11:00 020 0 gusting 0 -3.3
2020-Feb-23 10:55 304 0 gusting 1 -3.1
2020-Feb-23 10:50 303 1 gusting 1 -3.4
2020-Feb-23 10:45 305 0 gusting 0 -3.4
2020-Feb-23 10:40 188 0 gusting 0 -3.1
2020-Feb-23 10:35 188 0 gusting 0 -3.2
2020-Feb-23 10:30 187 0 gusting 0 -3.3
2020-Feb-23 10:25 182 0 gusting 0 -3.0
2020-Feb-23 10:20 182 0 gusting 0 -3.0
2020-Feb-23 10:15 182 0 gusting 0 -3.0
2020-Feb-23 10:10 182 0 gusting 0 -3.0
2020-Feb-23 10:05 182 0 gusting 0 -2.9
2020-Feb-23 10:00 182 0 gusting 0 -2.6
2020-Feb-23 09:55 182 0 gusting 0 -2.5
2020-Feb-23 09:50 181 1 gusting 1 -2.8
2020-Feb-23 09:45 184 0 gusting 1 -3.2
2020-Feb-23 09:40 161 0 gusting 1 -2.7
2020-Feb-23 09:35 148 1 gusting 1 -2.2
2020-Feb-23 09:30 127 0 gusting 1 -1.9
2020-Feb-23 09:25 128 0 gusting 1 -1.9
2020-Feb-23 09:20 223 0 gusting 0 -1.7
2020-Feb-23 09:15 231 0 gusting 0 -1.6
2020-Feb-23 09:10 231 0 gusting 0 -1.2
2020-Feb-23 09:05 225 0 gusting 2 -0.7
2020-Feb-23 09:00 238 1 gusting 2 -0.6
2020-Feb-23 08:55 235 2 gusting 3 -0.3
2020-Feb-23 08:50 233 2 gusting 3 -0.7
2020-Feb-23 08:45 224 2 gusting 3 -1.3
2020-Feb-23 08:40 207 2 gusting 3 -1.0
2020-Feb-23 08:35 216 1 gusting 2 -0.6
2020-Feb-23 08:30 266 0 gusting 1 -0.8
2020-Feb-23 08:25 304 1 gusting 2 -0.4
2020-Feb-23 08:20 317 0 gusting 1 0.2
2020-Feb-23 08:15 318 1 gusting 2 1.0
2020-Feb-23 08:10 285 1 gusting 2 0.8
2020-Feb-23 08:05 308 0 gusting 1 0.5
2020-Feb-23 08:00 174 0 gusting 1 0.8
2020-Feb-23 07:55 166 1 gusting 2 0.9
2020-Feb-23 07:50 154 1 gusting 1 1.0
2020-Feb-23 07:45 164 1 gusting 2 1.1
2020-Feb-23 07:40 166 2 gusting 4 1.2
2020-Feb-23 07:35 184 1 gusting 2 1.5
2020-Feb-23 07:30 205 2 gusting 4 1.6
2020-Feb-23 07:25 198 2 gusting 4 1.7
2020-Feb-23 07:20 206 3 gusting 6 1.7
2020-Feb-23 07:15 198 3 gusting 4 1.6
2020-Feb-23 07:10 195 3 gusting 4 1.5
2020-Feb-23 07:05 192 2 gusting 4 1.5
2020-Feb-23 07:00 191 2 gusting 4 1.5
2020-Feb-23 06:55 174 2 gusting 3 1.6
2020-Feb-23 06:50 175 2 gusting 3 1.6
2020-Feb-23 06:45 178 2 gusting 3 1.9
2020-Feb-23 06:40 191 2 gusting 3 2.2
2020-Feb-23 06:35 204 2 gusting 5 2.3
2020-Feb-23 06:30 204 3 gusting 5 2.5
2020-Feb-23 06:25 218 3 gusting 4 2.5
2020-Feb-23 06:20 215 3 gusting 6 2.5
2020-Feb-23 06:15 219 3 gusting 5 2.5
2020-Feb-23 06:10 220 3 gusting 6 2.5
2020-Feb-23 06:05 222 3 gusting 5 2.6
2020-Feb-23 06:00 217 4 gusting 7 2.4
2020-Feb-23 05:55 228 3 gusting 5 2.4
2020-Feb-23 05:50 217 3 gusting 5 2.4
2020-Feb-23 05:45 219 3 gusting 6 2.3
2020-Feb-23 05:40 224 2 gusting 3 2.1
2020-Feb-23 05:35 221 3 gusting 4 2.0
2020-Feb-23 05:30 213 2 gusting 4 1.6
2020-Feb-23 05:25 202 2 gusting 4 1.3
2020-Feb-23 05:20 196 2 gusting 3 1.4
2020-Feb-23 05:15 203 3 gusting 4 1.7
2020-Feb-23 05:10 204 3 gusting 5 1.7
2020-Feb-23 05:05 196 3 gusting 4 1.7
2020-Feb-23 05:00 203 3 gusting 6 1.6
2020-Feb-23 04:55 209 3 gusting 6 1.7
2020-Feb-23 04:50 209 4 gusting 6 1.6
2020-Feb-23 04:45 204 4 gusting 7 1.6
2020-Feb-23 04:40 203 5 gusting 6 1.6
2020-Feb-23 04:35 204 3 gusting 6 1.4
2020-Feb-23 04:30 204 3 gusting 6 1.5
2020-Feb-23 04:25 200 3 gusting 4 1.4
2020-Feb-23 04:20 196 3 gusting 4 1.4
2020-Feb-23 04:15 195 2 gusting 3 1.4
2020-Feb-23 04:10 194 3 gusting 4 1.4
2020-Feb-23 04:05 188 2 gusting 3 1.3
2020-Feb-23 04:00 186 2 gusting 4 1.3
2020-Feb-23 03:55 183 2 gusting 4 1.4
2020-Feb-23 03:50 182 2 gusting 3 1.2
2020-Feb-23 03:45 190 2 gusting 3 1.3
2020-Feb-23 03:40 191 2 gusting 4 1.4
2020-Feb-23 03:35 188 2 gusting 3 1.4
2020-Feb-23 03:30 180 1 gusting 2 1.6
2020-Feb-23 03:25 190 2 gusting 4 1.5
2020-Feb-23 03:20 196 1 gusting 2 1.3
2020-Feb-23 03:15 182 1 gusting 2 1.2
2020-Feb-23 03:10 178 1 gusting 2 1.2
2020-Feb-23 03:05 184 1 gusting 1 1.3
2020-Feb-23 03:00 176 1 gusting 1 1.4
2020-Feb-23 02:55 166 1 gusting 1 1.5
2020-Feb-23 02:50 159 0 gusting 1 1.6
2020-Feb-23 02:45 181 0 gusting 1 1.4
2020-Feb-23 02:40 186 1 gusting 2 1.5
2020-Feb-23 02:35 182 1 gusting 2 1.5
2020-Feb-23 02:30 170 1 gusting 2 1.7
2020-Feb-23 02:25 176 1 gusting 3 1.9
2020-Feb-23 02:20 197 2 gusting 3 2.2
2020-Feb-23 02:15 204 2 gusting 3 2.1
2020-Feb-23 02:10 203 1 gusting 3 1.8
2020-Feb-23 02:05 195 1 gusting 2 1.8
2020-Feb-23 02:00 183 1 gusting 2 1.9
2020-Feb-23 01:55 193 1 gusting 2 2.1
2020-Feb-23 01:50 188 2 gusting 3 2.4
2020-Feb-23 01:45 178 2 gusting 3 2.4
2020-Feb-23 01:40 165 1 gusting 2 2.6
2020-Feb-23 01:35 178 1 gusting 2 2.7
2020-Feb-23 01:30 194 2 gusting 3 2.9
2020-Feb-23 01:25 188 2 gusting 4 2.8
2020-Feb-23 01:20 187 2 gusting 2 2.8
2020-Feb-23 01:15 180 2 gusting 3 3.0
2020-Feb-23 01:10 186 2 gusting 3 3.2
2020-Feb-23 01:05 191 2 gusting 4 3.4
2020-Feb-23 01:00 207 3 gusting 4 3.6
2020-Feb-23 00:55 217 3 gusting 5 3.7
2020-Feb-23 00:50 214 3 gusting 4 3.7
2020-Feb-23 00:45 209 3 gusting 6 3.5
2020-Feb-23 00:40 189 2 gusting 4 3.6
2020-Feb-23 00:35 189 2 gusting 4 3.6
2020-Feb-23 00:30 193 2 gusting 4 3.6
2020-Feb-23 00:25 193 2 gusting 5 3.6
2020-Feb-23 00:20 190 2 gusting 3 3.8
2020-Feb-23 00:15 194 2 gusting 4 3.8
2020-Feb-23 00:10 185 2 gusting 3 4.0
2020-Feb-23 00:05 192 2 gusting 4 4.4
2020-Feb-23 00:00 210 2 gusting 3 4.6
2020-Feb-22 23:55 224 2 gusting 3 4.5
2020-Feb-22 23:50 217 2 gusting 3 4.3
2020-Feb-22 23:45 182 1 gusting 1 4.3
2020-Feb-22 23:40 168 1 gusting 1 4.8
2020-Feb-22 23:35 194 2 gusting 5 5.5
2020-Feb-22 23:30 217 2 gusting 4 5.8
2020-Feb-22 23:25 223 2 gusting 4 5.8
2020-Feb-22 23:20 215 2 gusting 4 5.9
2020-Feb-22 23:15 217 3 gusting 4 6.2
2020-Feb-22 23:10 225 2 gusting 3 6.4
2020-Feb-22 23:05 222 2 gusting 4 6.4
2020-Feb-22 23:00 220 3 gusting 5 6.5
2020-Feb-22 22:55 220 2 gusting 4 6.6
2020-Feb-22 22:50 230 3 gusting 5 6.6
2020-Feb-22 22:45 230 3 gusting 5 6.7
2020-Feb-22 22:40 222 3 gusting 5 7.1
2020-Feb-22 22:35 225 5 gusting 6 7.3
2020-Feb-22 22:30 222 5 gusting 7 7.6
2020-Feb-22 22:25 236 5 gusting 10 7.9
2020-Feb-22 22:20 227 5 gusting 10 8.1
2020-Feb-22 22:15 235 5 gusting 8 8.2
2020-Feb-22 22:10 252 6 gusting 12 8.4
2020-Feb-22 22:05 251 7 gusting 9 8.5
2020-Feb-22 22:00 243 7 gusting 10 8.7
2020-Feb-22 21:55 247 4 gusting 7 8.8
2020-Feb-22 21:50 227 7 gusting 13 8.8
2020-Feb-22 21:45 251 8 gusting 12 8.9
2020-Feb-22 21:40 258 8 gusting 12 9.0
2020-Feb-22 21:35 266 8 gusting 11 9.1
2020-Feb-22 21:30 253 7 gusting 11 9.2
2020-Feb-22 21:25 256 6 gusting 11 9.2
2020-Feb-22 21:20 252 8 gusting 14 9.3
2020-Feb-22 21:15 248 8 gusting 12 9.4
2020-Feb-22 21:10 243 7 gusting 11 9.5
2020-Feb-22 21:05 255 8 gusting 12 9.6
2020-Feb-22 21:00 262 8 gusting 12 9.6
2020-Feb-22 20:55 249 7 gusting 12 9.9
2020-Feb-22 20:50 255 7 gusting 10 9.9
2020-Feb-22 20:45 265 9 gusting 11 10.0
2020-Feb-22 20:40 250 7 gusting 12 10.1
2020-Feb-22 20:35 251 7 gusting 10 10.2
2020-Feb-22 20:30 254 8 gusting 14 10.0
2020-Feb-22 20:25 243 8 gusting 14 10.3
2020-Feb-22 20:20 275 7 gusting 10 10.4
2020-Feb-22 20:15 274 8 gusting 12 10.3
2020-Feb-22 20:10 264 8 gusting 12 10.4
2020-Feb-22 20:05 262 7 gusting 9 10.3
2020-Feb-22 20:00 252 8 gusting 14 10.5
2020-Feb-22 19:55 250 5 gusting 9 10.3
2020-Feb-22 19:50 247 8 gusting 13 10.1
2020-Feb-22 19:45 255 9 gusting 13 10.3
2020-Feb-22 19:40 248 8 gusting 11 10.2
2020-Feb-22 19:35 258 9 gusting 12 10.4
2020-Feb-22 19:30 246 7 gusting 13 10.4
2020-Feb-22 19:25 252 7 gusting 11 10.3
2020-Feb-22 19:20 252 9 gusting 13 10.2
2020-Feb-22 19:15 273 7 gusting 12 10.6
2020-Feb-22 19:10 272 6 gusting 10 10.2
2020-Feb-22 19:05 274 7 gusting 12 10.2
2020-Feb-22 19:00 254 5 gusting 11 10.0
2020-Feb-22 18:55 252 7 gusting 11 10.0
2020-Feb-22 18:50 289 8 gusting 11 9.7
2020-Feb-22 18:45 284 10 gusting 14 9.5
2020-Feb-22 18:40 286 10 gusting 16 9.6
2020-Feb-22 18:35 256 8 gusting 12 9.6
2020-Feb-22 18:30 242 6 gusting 10 9.3
2020-Feb-22 18:25 257 7 gusting 11 9.4
2020-Feb-22 18:20 260 7 gusting 12 9.1
2020-Feb-22 18:15 260 7 gusting 10 9.0
2020-Feb-22 18:10 283 8 gusting 16 8.8
2020-Feb-22 18:05 260 7 gusting 11 8.8
2020-Feb-22 18:00 272 7 gusting 11 8.5
2020-Feb-22 17:55 266 8 gusting 12 8.4
2020-Feb-22 17:50 285 8 gusting 11 8.5
2020-Feb-22 17:45 281 7 gusting 14 8.6
2020-Feb-22 17:40 289 9 gusting 13 8.5
2020-Feb-22 17:35 263 8 gusting 12 8.1
2020-Feb-22 17:30 265 9 gusting 14 8.2
2020-Feb-22 17:25 286 7 gusting 11 8.1
2020-Feb-22 17:20 270 10 gusting 13 7.8
2020-Feb-22 17:15 259 10 gusting 15 7.6
2020-Feb-22 17:10 259 8 gusting 14 7.5
2020-Feb-22 17:05 278 9 gusting 13 7.7
2020-Feb-22 17:00 270 8 gusting 13 7.6
2020-Feb-22 16:55 275 9 gusting 13 7.5
2020-Feb-22 16:50 286 7 gusting 13 7.4
2020-Feb-22 16:45 267 6 gusting 11 7.4
2020-Feb-22 16:40 265 8 gusting 13 6.9
2020-Feb-22 16:35 271 8 gusting 12 7.1
2020-Feb-22 16:30 283 9 gusting 14 7.0
2020-Feb-22 16:25 264 7 gusting 13 6.8
2020-Feb-22 16:20 267 8 gusting 12 6.9
2020-Feb-22 16:15 255 8 gusting 12 6.8
2020-Feb-22 16:10 248 9 gusting 13 6.3
2020-Feb-22 16:05 264 9 gusting 13 6.4
2020-Feb-22 16:00 285 9 gusting 13 6.2
2020-Feb-22 15:55 276 10 gusting 13 6.2
2020-Feb-22 15:50 270 8 gusting 14 6.1
2020-Feb-22 15:45 260 8 gusting 12 5.9
2020-Feb-22 15:40 259 6 gusting 10 6.0
2020-Feb-22 15:35 286 7 gusting 10 5.7
2020-Feb-22 15:30 275 8 gusting 11 5.2
2020-Feb-22 15:25 289 8 gusting 12 5.3
2020-Feb-22 15:20 274 7 gusting 12 5.1
2020-Feb-22 15:15 269 8 gusting 11 5.0
2020-Feb-22 15:10 278 7 gusting 10 4.7
2020-Feb-22 15:05 271 8 gusting 11 4.4
2020-Feb-22 15:00 274 7 gusting 13 4.4
2020-Feb-22 14:55 271 6 gusting 10 4.2
2020-Feb-22 14:50 260 6 gusting 9 4.0
2020-Feb-22 14:45 253 6 gusting 10 3.6
2020-Feb-22 14:40 274 7 gusting 10 3.2
2020-Feb-22 14:35 271 9 gusting 12 3.1
2020-Feb-22 14:30 262 7 gusting 12 3.1
2020-Feb-22 14:25 272 7 gusting 10 2.7
2020-Feb-22 14:20 271 7 gusting 11 2.4
2020-Feb-22 14:15 267 8 gusting 12 2.0
2020-Feb-22 14:10 268 8 gusting 12 1.6
2020-Feb-22 14:05 264 8 gusting 11 1.4
2020-Feb-22 14:00 268 7 gusting 12 1.1